Terminal Aerodrome Forecast
Issued by NWS

Home | Current Version | Previous Version | Graphics & Text | Print | Product List | Glossary Off
Versions: 1 2 3 4 5 6 7 8 9 10 11 12 13 14 15

000
FTUS43 KDDC 202300
TAFHYS
TAF
KHYS 202326Z 2100/2124 15020G28KT P6SM FEW090
     FM210030 17013KT P6SM VCTS BKN040CB
     FM210330 14009KT P6SM BKN150
     FM211500 01015G22KT P6SM SCT250=

USA.gov is the U.S. government's official web portal to all federal, state and local government web resources and services.